FENGYUN 1C DEB

Satellite information

Favourite Embed

Satellite Type and Status

DEBRISIN ORBIT

Key statistics

Satellite FENGYUN 1C DEB at a glance.

Uptime

9656

Days in orbit

Revolutions

≈ 14.0

Per day

Orbit

SSO

Sun Synchronous Orbit

Inclination

98.9

Latest

Satellite identification and parameters

Extended collection of information and parameters for FENGYUN 1C DEB.

Object identification

Identified? True

Debris? True

Object name: FENGYUN 1C DEB

International designator: 1999-025XY

Object number (NORAD): 30263

Object ID (CCSDS): 30263

Country: PEOPLES REPUBLIC OF CHINA (PRC)

Current information (Y/N): Y

RCS size: SMALL

Orbital parameters

Period: 102.776 minutes

Inclination: 98.9271 deg

SMA: 7268.09 km

Apoapsis: 996.672 km

Periapsis: 783.238 km

RAAN: 43.6879 deg

Eccentricy: 0.01468296

Argument of periapsis: 165.3642 deg

Mean anomaly: 225.7454 deg

Mean motion: 14.0111039 rev/day

Mean motion (dot): 0.00003899 rev/day2

B* drag term: 0.0023904694 1/REarth

Two-line elements (TLE)

Creation date: Oct. 14, 2025, 5:26 p.m.

Reference frame: TEME

Reference center: EARTH

Epoch: Oct. 14, 2025, 6:18 a.m. UTC

TLE line 0: 0 FENGYUN 1C DEB

TLE line 1: 1 30263U 99025XY 25287.26253479 .00003899 00000-0 23905-2 0 9991

TLE line 2: 2 30263 98.9271 43.6879 0146830 165.3642 225.7454 14.01110390951923

Live tracking on map

Real-time ground track for satellite FENGYUN 1C DEB.

In-orbit conjunctions

A list of the most updated potential collisions computed for object FENGYUN 1C DEB.

Target Orbit TCA Probability of collision Miss distance Type
THORAD AGENA D DEB SSO 2025-09-02 21:50:14 0.0002253343 149.0 (m) DEBRIS
DELTA 1 DEB SSO 2025-06-04 14:47:04 0.0002597404 79.0 (m) DEBRIS
CZ-6A DEB LEO 2025-02-22 17:19:34 0.0002050926 891.0 (m) DEBRIS
CZ-6A DEB LEO 2025-02-12 08:31:59 0.0001742533 912.0 (m) DEBRIS
COSMOS 1275 DEB LEO 2024-12-29 14:19:52 0.0001025839 174.0 (m) DEBRIS

Associated space launch

Chinese polar orbiting meteorological satellite

FENGYUN 1C DEB was lifted into orbit during the mission ‘Long March 4B | Feng Yun 1C’, on board a Long March 4B space rocket.

The launch took place on May 10, 1999, 1:33 a.m. from Launch Complex 7.

For more information about the launch, click the button.

Launch to space Long March 4B | Feng Yun 1C
Long March 4B | Feng Yun 1C

Agency: N/A

Status: Launch Successful

Launch date: May 10, 1999, 1:33 a.m. UTC

Rocket: Long March 4B

Launch pad: Launch Complex 7

Location: Taiyuan Satellite Launch Center, People's Republic of China

...

Latest news about this satellite

There are no fresh news available about this satellite. Check back as we update our databases every day.


Newsletter sign-up

Weekly statistics, charts and insights to help you stay on top of the space industry.